This is the latest recevied weather packets stored in our database for station/object KX4O-13. If no packets are shown the sender has not sent any weather packets the latest 10 day(s).
| Time | Temp. | Humidity | Pressure | Rain* | Wind** | Luminosity | Snow |
|---|---|---|---|---|---|---|---|
| 1778129150 | 13.33° C | 91% | 1010.4 hPa | 3.56 mm | - | 0 W/m² | - |
| 1778128850 | 13.33° C | 91% | 1010.4 hPa | 4.06 mm | - | 0 W/m² | - |
| 1778128551 | 13.33° C | 91% | 1010.1 hPa | 4.06 mm | - | 0 W/m² | - |
| 1778128251 | 13.89° C | 91% | 1010.1 hPa | 3.81 mm | - | 0 W/m² | - |
| 1778127951 | 13.89° C | 92% | 1010.2 hPa | 3.81 mm | - | 0 W/m² | - |
| 1778127651 | 13.89° C | 92% | 1010.2 hPa | 4.06 mm | - | 0 W/m² | - |
| 1778127350 | 13.89° C | 92% | 1010.4 hPa | 3.81 mm | - | 0 W/m² | - |
| 1778127052 | 13.89° C | 92% | 1010.5 hPa | 3.56 mm | - | 0 W/m² | - |
| 1778126750 | 13.89° C | 91% | 1010.6 hPa | 3.3 mm | - | 0 W/m² | - |
| 1778126451 | 13.89° C | 91% | 1010.6 hPa | 2.79 mm | - | 0 W/m² | - |
| 1778126151 | 14.44° C | 90% | 1010.9 hPa | 2.29 mm | - | 0 W/m² | - |
| 1778125851 | 14.44° C | 89% | 1010.6 hPa | 1.78 mm | - | 0 W/m² | - |
| 1778125551 | 14.44° C | 88% | 1010.5 hPa | 1.27 mm | - | 0 W/m² | - |
| 1778125251 | 15° C | 88% | 1009.8 hPa | 0.51 mm | - | 0 W/m² | - |
| 1778124950 | 15° C | 88% | 1009.6 hPa | 0.25 mm | - | 0 W/m² | - |
| 1778124652 | 15.56° C | 89% | 1009.9 hPa | 0.25 mm | - | 0 W/m² | - |
| 1778124351 | 16.11° C | 92% | 1009.7 hPa | 0.25 mm | - | 0 W/m² | - |
| 1778124051 | 16.11° C | 92% | 1009.8 hPa | 0 mm | - | 0 W/m² | - |
| 1778123750 | 16.67° C | 92% | 1010 hPa | 0 mm | - | 0 W/m² | - |
| 1778123451 | 16.11° C | 92% | 1010 hPa | 0 mm | - | 0 W/m² | - |
| 1778123151 | 16.67° C | 92% | 1009.8 hPa | 0 mm | - | 0 W/m² | - |
| 1778122851 | 16.67° C | 92% | 1009.9 hPa | 0 mm | - | 0 W/m² | - |
| 1778122551 | 16.67° C | 92% | 1009.7 hPa | 0 mm | - | 0 W/m² | - |
| 1778122253 | 16.67° C | 93% | 1009.7 hPa | 0 mm | - | 0 W/m² | - |
| 1778121951 | 16.67° C | 93% | 1009.5 hPa | 0 mm | - | 0 W/m² | - |
* Rain latest hour (hover to see other rain measurements)
** Current wind speed in m/s (hover to see current wind gust speed)